Provo, UT

7:27 AM MDT on September 24, 2017 (GMT -0600)
Provo Municipal

Weather History for KPVU - December, 2012

Change the Weather History Date:

Saturday, December 29, 2012

  Actual Average Record
Temperature  
Mean Temperature 16 °F -  
Max Temperature 24 °F 33 °F 51 °F (1996)
Min Temperature 8 °F 20 °F 1 °F (1988)
Degree Days  
Heating Degree Days 49    
Moisture  
Dew Point 12 °F    
Average Humidity 92    
Maximum Humidity 100    
Minimum Humidity 73    
Precipitation  
Precipitation 0.00 in - - ()
Sea Level Pressure  
Sea Level Pressure 30.14 in    
Wind  
Wind Speed 1 mph (SW)    
Max Wind Speed 6 mph    
Max Gust Speed -    
Visibility 9 miles    
Events      
Averages and records for this station are not official NWS values.
T = Trace of Precipitation, MM = Missing Value Source: NWS Daily Summary

Daily Weather History Graph

Daily Weather History Graph

Search for Another Location

Airport or City:

Trip Planner

Search our weather history database for the weather conditions in past years. The results will help you decide how hot, cold, wet, or windy it might be!

Date:

Astronomy

Dec. 29, 2012 Rise Set
Actual Time 7:49 AM MST 5:09 PM MST
Civil Twilight 7:18 AM MST 5:40 PM MST
Nautical Twilight 6:44 AM MST 6:14 PM MST
Astronomical Twilight 6:11 AM MST 6:47 PM MST
Moon 6:46 PM MST (12/29) 8:24 AM MST (12/29)
Length of Visible Light 10h 21m
Length of Day
9h 20m
Full, 98% of the Moon is Illuminated
Dec 29
Full
Jan 4
Last Quarter
Jan 11
New
Jan 18
First Quarter
Jan 26
Full

Hourly Weather History & Observations

Time (MST) Temp. Windchill Dew Point Humidity Pressure Visibility Wind Dir Wind Speed Gust Speed Precip Events Conditions
12:15 AM 10.4 °F - 8.6 °F 92% 30.24 in 10.0 mi Calm Calm - N/A   Clear
12:35 AM 10.4 °F - 8.6 °F 92% 30.22 in 10.0 mi Calm Calm - N/A   Clear
12:55 AM 10.4 °F - 6.8 °F 85% 30.22 in 10.0 mi Calm Calm - N/A   Clear
1:15 AM 12.2 °F 4.3 °F 10.4 °F 92% 30.21 in 10.0 mi WSW 4.6 mph - N/A   Clear
1:35 AM 10.4 °F - 8.6 °F 92% 30.21 in 10.0 mi Calm Calm - N/A   Clear
1:55 AM 10.4 °F 4.0 °F 8.6 °F 92% 30.21 in 10.0 mi SSW 3.5 mph - N/A   Clear
2:35 AM 8.6 °F -1.3 °F 1.4 °F 73% 30.20 in 10.0 mi WSW 5.8 mph - N/A   Clear
3:35 AM 10.4 °F 2.2 °F 8.6 °F 92% 30.21 in 10.0 mi SSW 4.6 mph - N/A   Clear
3:55 AM 10.4 °F - 8.6 °F 92% 30.21 in 10.0 mi Calm Calm - N/A   Clear
4:35 AM 10.4 °F - 8.6 °F 92% 30.21 in 10.0 mi Calm Calm - N/A   Partly Cloudy
4:55 AM 8.6 °F - 6.8 °F 92% 30.20 in 10.0 mi Calm Calm - N/A   Clear
5:15 AM 10.4 °F - 8.6 °F 92% 30.20 in 10.0 mi Calm Calm - N/A   Clear
5:35 AM 10.4 °F - 6.8 °F 85% 30.19 in 9.0 mi Calm Calm - N/A   Clear
5:55 AM 10.4 °F 2.2 °F 10.4 °F 100% 30.19 in 5.0 mi SW 4.6 mph - N/A   Partly Cloudy
6:15 AM 12.2 °F - 10.4 °F 92% 30.19 in 0.8 mi Calm Calm - N/A   Overcast
6:35 AM 12.2 °F - 12.2 °F 100% 30.20 in 10.0 mi Calm Calm - N/A   Mostly Cloudy
6:47 AM 10.4 °F - 3.2 °F 73% 30.20 in 10.0 mi Calm Calm - N/A   Partly Cloudy
7:15 AM 10.4 °F 2.2 °F 10.4 °F 100% 30.20 in 1.5 mi East 4.6 mph - N/A   Clear
7:35 AM 10.4 °F - 10.4 °F 100% 30.19 in 4.0 mi Calm Calm - N/A   Clear
7:49 AM 12.2 °F - 10.4 °F 92% 30.18 in 12.0 mi Calm Calm - N/A   Mostly Cloudy
7:55 AM 12.2 °F - 10.4 °F 92% 30.17 in 4.0 mi Calm Calm - N/A   Clear
8:15 AM 12.2 °F 6.1 °F 10.4 °F 92% 30.18 in 3.0 mi WSW 3.5 mph - N/A   Clear
8:35 AM 14.0 °F - 12.2 °F 93% 30.18 in 3.0 mi Calm Calm - N/A   Clear
8:55 AM 12.2 °F - 12.2 °F 100% 30.17 in 6.0 mi Calm Calm - N/A   Clear
8:57 AM 12.2 °F - 10.4 °F 92% 30.17 in 12.0 mi Calm Calm - N/A   Mostly Cloudy
9:15 AM 12.2 °F - 10.4 °F 92% 30.18 in 6.0 mi Calm Calm - N/A   Clear
9:35 AM 12.2 °F - 12.2 °F 100% 30.18 in 8.0 mi Calm Calm - N/A   Clear
9:55 AM 14.0 °F - 12.2 °F 93% 30.18 in 9.0 mi Calm Calm - N/A   Clear
9:58 AM 14.0 °F - 14.0 °F 100% 30.18 in 12.0 mi Calm Calm - N/A   Overcast
10:47 AM 15.8 °F - 15.8 °F 100% 30.18 in 10.0 mi Calm Calm - N/A   Mostly Cloudy
11:54 AM 19.4 °F 14.3 °F 19.4 °F 100% 30.14 in 12.0 mi Variable 3.5 mph - N/A   Mostly Cloudy
1:51 PM 21.2 °F - 19.4 °F 93% 30.07 in 12.0 mi Calm Calm - N/A   Mostly Cloudy
2:47 PM 24.8 °F - 19.4 °F 80% 30.04 in 10.0 mi Calm Calm - N/A   Mostly Cloudy
3:55 PM 21.2 °F - 15.8 °F 80% 30.02 in 15.0 mi Calm Calm - N/A   Mostly Cloudy
4:49 PM 21.2 °F - 15.8 °F 80% 30.00 in 15.0 mi Calm Calm - N/A   Mostly Cloudy
5:47 PM 19.4 °F 14.3 °F 17.6 °F 93% 30.00 in 15.0 mi SSE 3.5 mph - N/A   Mostly Cloudy
6:54 PM 19.4 °F 14.3 °F 17.6 °F 93% 30.00 in 15.0 mi SW 3.5 mph - N/A   Mostly Cloudy
8:49 PM 17.6 °F 12.3 °F 17.6 °F 100% 30.01 in 15.0 mi East 3.5 mph - N/A   Mostly Cloudy
9:15 PM 19.4 °F - 17.6 °F 93% 30.01 in 10.0 mi Calm Calm - N/A   Clear
9:35 PM 17.6 °F - 15.8 °F 93% 30.01 in 9.0 mi Calm Calm - N/A   Partly Cloudy
10:15 PM 19.4 °F - 15.8 °F 86% 30.00 in 8.0 mi Calm Calm - N/A   Mostly Cloudy
10:35 PM 19.4 °F 14.3 °F 17.6 °F 93% 30.01 in 10.0 mi West 3.5 mph - N/A   Mostly Cloudy
10:55 PM 21.2 °F 14.9 °F 17.6 °F 86% 30.01 in 9.0 mi NW 4.6 mph - N/A   Partly Cloudy
11:15 PM 21.2 °F 16.4 °F 17.6 °F 86% 30.01 in 10.0 mi North 3.5 mph - N/A   Scattered Clouds
11:55 PM 19.4 °F - 17.6 °F 93% 30.00 in 10.0 mi Calm Calm - N/A   Mostly Cloudy